Kosmos-2584

operational
NORAD ID: 63130 Int'l Des: 2025-042 Owner: VVKOV/IACG Country: RU Constellation: GLONASS
MEOCIRCULAR

Über Kosmos-2584

Beschreibung wird geladen...

Live-Position

3D-Globus wird geladen...

Nächste Überflüge

Höhenverlauf

Altitude vs Time

uPlot chart will show altitude changes over time

Zweizeiliger Elementsatz

1 63130U 25042A 26032.99421580 .00000010 00000-0 00000-0 0 9998
2 63130 65.0043 77.3991 0007923 230.5803 129.4286 2.13103094 7160
Epoch: 1. Feb. 2026 • Age: 50 hours

Aktueller Status

Höhe 19122.3 km
Geschwindigkeit 3.95 km/s
Subsatellitenpunkt 15.81°N, 85.55°E
Startdatum 2. März 2025
Alter 0.9 years
Typ other

Technische Details

Klassifizierung Payload
Masse 974.00 kg
Trockenmasse 800.00 kg
Gesamtmasse 974.00 kg
Länge 2.00 m
Durchmesser 1.00 m
Spannweite 5.00 m
Form Box + 2 Pan
Hersteller RESH
Bus-Typ KAUR-4N
Phasenstatus In Orbit
Besitzer/Staat VVKOV/IACG/RU

Große Konstellationen

Loading constellations...